Weather History for KLCI - December, 2010

Change the Weather History Date:

Thursday, December 16, 2010

  Actual Average Record
Temperature  
Mean Temperature 18 °F -  
Max Temperature 26 °F 35 °F 48 °F (1993)
Min Temperature 10 °F 20 °F 3 °F (2013)
Degree Days  
Heating Degree Days 47    
Moisture  
Dew Point 7 °F    
Average Humidity 60    
Maximum Humidity 74    
Minimum Humidity 47    
Precipitation  
Precipitation 0.00 in - - ()
Sea Level Pressure  
Sea Level Pressure 29.67 in    
Wind  
Wind Speed 5 mph (WSW)    
Max Wind Speed 10 mph    
Max Gust Speed 16 mph    
Visibility 10 miles    
Events      
Averages and records for this station are not official NWS values.
T = Trace of Precipitation, MM = Missing Value Source: NWS Daily Summary

Daily Weather History Graph

Daily Weather History Graph

Search for Another Location

Airport or City:

Trip Planner

Search our weather history database for the weather conditions in past years. The results will help you decide how hot, cold, wet, or windy it might be!

Date:

Astronomy

Dec. 16, 2010 Rise Set
Actual Time 7:12 AM EST 4:09 PM EST
Civil Twilight 6:39 AM EST 4:42 PM EST
Nautical Twilight 6:03 AM EST 5:19 PM EST
Astronomical Twilight 5:28 AM EST 5:53 PM EST
Moon 12:46 PM EST (12/16) 2:22 AM EST (12/16)
Length of Visible Light 10h 02m
Length of Day
8h 57m
Waxing Gibbous, 78% of the Moon is Illuminated
Dec 16
Waxing Gibbous
Dec 21
Full
Dec 27
Last Quarter
Jan 4
New
Jan 12
First Quarter

Hourly Weather History & Observations

Time (EST) Temp. Windchill Dew Point Humidity Pressure Visibility Wind Dir Wind Speed Gust Speed Precip Events Conditions
12:15 AM 14.0 °F 2.9 °F 3.2 °F 62% 29.59 in 10.0 mi West 8.1 mph - N/A   Overcast
12:35 AM 14.0 °F 5.1 °F 5.0 °F 67% 29.60 in 8.0 mi West 5.8 mph - N/A   Overcast
12:55 AM 14.0 °F 8.2 °F 3.2 °F 62% 29.60 in 10.0 mi West 3.5 mph - N/A   Overcast
1:15 AM 14.0 °F 2.9 °F 3.2 °F 62% 29.61 in 10.0 mi West 8.1 mph - N/A   Mostly Cloudy
1:35 AM 14.0 °F 5.1 °F 1.4 °F 57% 29.61 in 10.0 mi West 5.8 mph - N/A   Overcast
1:55 AM 15.8 °F 5.1 °F 3.2 °F 58% 29.62 in 10.0 mi West 8.1 mph 16.1 mph N/A   Mostly Cloudy
2:15 AM 15.8 °F 6.1 °F 3.2 °F 58% 29.62 in 10.0 mi WSW 6.9 mph - N/A   Mostly Cloudy
2:35 AM 14.0 °F 2.9 °F 1.4 °F 57% 29.62 in 10.0 mi West 8.1 mph - N/A   Partly Cloudy
3:15 AM 14.0 °F 1.2 °F 3.2 °F 62% 29.63 in 10.0 mi WSW 10.4 mph - N/A   Clear
3:35 AM 15.8 °F 4.2 °F 3.2 °F 58% 29.63 in 10.0 mi WSW 9.2 mph - N/A   Clear
3:55 AM 14.0 °F 2.9 °F 3.2 °F 62% 29.63 in 10.0 mi WSW 8.1 mph - N/A   Clear
4:15 AM 14.0 °F 2.9 °F 1.4 °F 57% 29.64 in 10.0 mi SW 8.1 mph - N/A   Clear
4:35 AM 14.0 °F 3.9 °F 3.2 °F 62% 29.64 in 10.0 mi SW 6.9 mph - N/A   Clear
4:55 AM 12.2 °F 2.9 °F 3.2 °F 67% 29.64 in 10.0 mi SW 5.8 mph - N/A   Clear
5:15 AM 12.2 °F 4.3 °F 3.2 °F 67% 29.64 in 10.0 mi West 4.6 mph - N/A   Clear
5:35 AM 12.2 °F 2.9 °F 3.2 °F 67% 29.65 in 10.0 mi WSW 5.8 mph - N/A   Clear
5:55 AM 12.2 °F 2.9 °F 3.2 °F 67% 29.66 in 10.0 mi SW 5.8 mph - N/A   Scattered Clouds
6:15 AM 12.2 °F 4.3 °F 3.2 °F 67% 29.66 in 10.0 mi SW 4.6 mph - N/A   Scattered Clouds
6:35 AM 12.2 °F - 3.2 °F 67% 29.66 in 10.0 mi Calm Calm - N/A   Partly Cloudy
6:55 AM 10.4 °F 4.0 °F 3.2 °F 73% 29.66 in 10.0 mi SW 3.5 mph - N/A   Clear
7:15 AM 10.4 °F - 3.2 °F 73% 29.67 in 10.0 mi Calm Calm - N/A   Partly Cloudy
7:35 AM 10.4 °F - 1.4 °F 67% 29.68 in 10.0 mi Calm Calm - N/A   Clear
7:55 AM 10.4 °F 4.0 °F 3.2 °F 73% 29.68 in 10.0 mi SW 3.5 mph - N/A   Clear
8:15 AM 12.2 °F - 5.0 °F 73% 29.68 in 10.0 mi Calm Calm - N/A   Partly Cloudy
8:35 AM 14.0 °F 8.2 °F 5.0 °F 67% 29.69 in 10.0 mi WSW 3.5 mph - N/A   Mostly Cloudy
9:15 AM 15.8 °F 7.2 °F 5.0 °F 62% 29.69 in 10.0 mi WSW 5.8 mph - N/A   Overcast
9:35 AM 17.6 °F 12.3 °F 5.0 °F 58% 29.69 in 10.0 mi WSW 3.5 mph - N/A   Overcast
10:15 AM 17.6 °F 8.2 °F 6.8 °F 63% 29.69 in 10.0 mi SW 6.9 mph - N/A   Overcast
10:35 AM 19.4 °F 11.5 °F 6.8 °F 58% 29.69 in 10.0 mi WSW 5.8 mph - N/A   Overcast
10:55 AM 19.4 °F 9.5 °F 6.8 °F 58% 29.69 in 10.0 mi WSW 8.1 mph - N/A   Overcast
11:15 AM 21.2 °F 11.7 °F 6.8 °F 54% 29.69 in 10.0 mi SSW 8.1 mph - N/A   Overcast
11:35 AM 21.2 °F 14.9 °F 6.8 °F 54% 29.68 in 10.0 mi SW 4.6 mph - N/A   Overcast
11:55 AM 23.0 °F 13.9 °F 8.6 °F 54% 29.68 in 10.0 mi West 8.1 mph - N/A   Overcast
12:15 PM 21.2 °F 10.9 °F 6.8 °F 54% 29.67 in 10.0 mi SW 9.2 mph - N/A   Overcast
12:35 PM 23.0 °F 14.7 °F 8.6 °F 54% 29.68 in 10.0 mi SW 6.9 mph - N/A   Overcast
12:55 PM 24.8 °F 17.9 °F 8.6 °F 50% 29.67 in 10.0 mi SW 5.8 mph - N/A   Overcast
1:15 PM 24.8 °F 19.1 °F 8.6 °F 50% 29.67 in 10.0 mi WSW 4.6 mph - N/A   Overcast
1:35 PM 24.8 °F - 8.6 °F 50% 29.67 in 10.0 mi Calm Calm - N/A   Overcast
1:55 PM 26.6 °F - 8.6 °F 47% 29.67 in 10.0 mi Calm Calm - N/A   Overcast
2:15 PM 26.6 °F - 10.4 °F 51% 29.68 in 10.0 mi Calm Calm - N/A   Overcast
2:35 PM 26.6 °F 19.1 °F 8.6 °F 47% 29.68 in 10.0 mi WSW 6.9 mph - N/A   Overcast
3:15 PM 26.6 °F 21.2 °F 10.4 °F 51% 29.69 in 10.0 mi West 4.6 mph - N/A   Overcast
3:35 PM 26.6 °F 18.2 °F 10.4 °F 51% 29.69 in 10.0 mi SW 8.1 mph - N/A   Mostly Cloudy
3:55 PM 26.6 °F 17.5 °F 10.4 °F 51% 29.70 in 10.0 mi SW 9.2 mph - N/A   Overcast
4:15 PM 26.6 °F 16.8 °F 10.4 °F 51% 29.70 in 10.0 mi SSW 10.4 mph - N/A   Overcast
4:35 PM 26.6 °F 18.2 °F 12.2 °F 55% 29.70 in 10.0 mi SW 8.1 mph - N/A   Overcast
4:55 PM 26.6 °F 22.6 °F 12.2 °F 55% 29.71 in 10.0 mi SSW 3.5 mph - N/A   Overcast
5:15 PM 26.6 °F - 12.2 °F 55% 29.71 in 10.0 mi Calm Calm - N/A   Overcast
5:35 PM 26.6 °F - 10.4 °F 51% 29.72 in 10.0 mi Calm Calm - N/A   Overcast
5:55 PM 24.8 °F - 12.2 °F 59% 29.72 in 10.0 mi Calm Calm - N/A   Overcast
6:15 PM 24.8 °F - 12.2 °F 59% 29.72 in 10.0 mi Calm Calm - N/A   Overcast
6:35 PM 24.8 °F - 12.2 °F 59% 29.72 in 10.0 mi Calm Calm - N/A   Overcast
6:55 PM 24.8 °F - 12.2 °F 59% 29.72 in 10.0 mi Calm Calm - N/A   Overcast
7:15 PM 23.0 °F - 12.2 °F 63% 29.72 in 10.0 mi Calm Calm - N/A   Overcast
7:35 PM 23.0 °F - 12.2 °F 63% 29.72 in 10.0 mi Calm Calm - N/A   Overcast
7:55 PM 23.0 °F - 12.2 °F 63% 29.72 in 10.0 mi Calm Calm - N/A   Overcast
8:15 PM 21.2 °F - 12.2 °F 68% 29.72 in 10.0 mi Calm Calm - N/A   Overcast
8:35 PM 21.2 °F - 12.2 °F 68% 29.71 in 10.0 mi Calm Calm - N/A   Overcast
8:55 PM 21.2 °F - 12.2 °F 68% 29.71 in 10.0 mi Calm Calm - N/A   Overcast
9:15 PM 19.4 °F - 12.2 °F 74% 29.71 in 10.0 mi Calm Calm - N/A   Mostly Cloudy
9:35 PM 19.4 °F - 12.2 °F 74% 29.71 in 10.0 mi Calm Calm - N/A   Overcast
9:55 PM 19.4 °F - 12.2 °F 74% 29.72 in 10.0 mi Calm Calm - N/A   Overcast
10:15 PM 21.2 °F - 12.2 °F 68% 29.72 in 10.0 mi Calm Calm - N/A   Overcast
10:35 PM 19.4 °F - 14.0 °F 80% 29.72 in 10.0 mi Calm Calm - N/A   Overcast
10:55 PM 21.2 °F - 14.0 °F 74% 29.72 in 10.0 mi Calm Calm - N/A   Overcast
11:15 PM 19.4 °F - 12.2 °F 74% 29.71 in 10.0 mi Calm Calm - N/A   Partly Cloudy
11:35 PM 17.6 °F - 12.2 °F 79% 29.71 in 10.0 mi Calm Calm - N/A   Clear
11:55 PM 17.6 °F - 12.2 °F 79% 29.70 in 10.0 mi Calm Calm - N/A   Clear